• In India
  • List of Countries
  • For 7 days
  • Water Temperature
  • Satellite Maps
  • Weather Map
  • Weather Widgets
  • user-avatar
    Login

    Hourly Weather Zaliznyi Port

    Today, 20 September, Thursday

    Time Temperature Precipitation Wind Pressure Humidity
    00:00 +20°C° 0 mm 3 mps 766 mmHg 56%
    01:00 +19°C° 0 mm 3 mps 766 mmHg 56%
    02:00 +19°C° 0 mm 3 mps 766 mmHg 56%
    03:00 +19°C° 0 mm 3 mps 766 mmHg 56%
    04:00 +18°C° 0 mm 3 mps 766 mmHg 56%
    05:00 +18°C° 0 mm 3 mps 766 mmHg 56%
    06:00 +20°C° 0 mm 3 mps 766 mmHg 52%
    07:00 +21°C° 0 mm 3 mps 766 mmHg 48%
    08:00 +24°C° 0 mm 3 mps 766 mmHg 42%
    09:00 +26°C° 0 mm 2 mps 766 mmHg 37%
    10:00 +28°C° 0 mm 2 mps 766 mmHg 33%
    11:00 +29°C° 0 mm 2 mps 766 mmHg 29%
    12:00 +30°C° 0 mm 2 mps 766 mmHg 27%
    13:00 +30°C° 0 mm 1 mps 765 mmHg 25%
    14:00 +31°C° 0 mm 1 mps 765 mmHg 24%
    15:00 +30°C° 0 mm 2 mps 765 mmHg 26%
    16:00 +30°C° 0 mm 2 mps 765 mmHg 29%
    17:00 +29°C° 0 mm 2 mps 764 mmHg 31%
    18:00 +27°C° 0 mm 2 mps 764 mmHg 34%
    19:00 +26°C° 0 mm 2 mps 764 mmHg 36%
    20:00 +24°C° 0 mm 2 mps 764 mmHg 39%
    21:00 +23°C° 0 mm 2 mps 764 mmHg 40%
    22:00 +23°C° 0 mm 2 mps 764 mmHg 41%
    23:00 +21°C° 0 mm 2 mps 764 mmHg 42%

    Tomorrow, 21 September, Friday

    Time Temperature Precipitation Wind Pressure Humidity
    00:00 +21°C° 0 mm 2 mps 764 mmHg 42%
    01:00 +21°C° 0 mm 2 mps 764 mmHg 42%
    02:00 +20°C° 0 mm 2 mps 764 mmHg 42%
    03:00 +20°C° 0 mm 2 mps 764 mmHg 44%
    04:00 +20°C° 0 mm 3 mps 764 mmHg 45%
    05:00 +19°C° 0 mm 3 mps 764 mmHg 46%
    06:00 +21°C° 0 mm 3 mps 764 mmHg 45%
    07:00 +22°C° 0 mm 3 mps 764 mmHg 44%
    08:00 +25°C° 0 mm 3 mps 764 mmHg 43%
    09:00 +27°C° 0 mm 3 mps 764 mmHg 39%
    10:00 +28°C° 0 mm 3 mps 764 mmHg 35%
    11:00 +30°C° 0 mm 3 mps 764 mmHg 31%
    12:00 +31°C° 0 mm 2 mps 764 mmHg 29%
    13:00 +31°C° 0 mm 2 mps 764 mmHg 27%
    14:00 +32°C° 0 mm 2 mps 763 mmHg 26%
    15:00 +31°C° 0 mm 2 mps 763 mmHg 28%
    16:00 +30°C° 0 mm 2 mps 763 mmHg 31%
    17:00 +30°C° 0 mm 2 mps 763 mmHg 33%
    18:00 +28°C° 0 mm 2 mps 763 mmHg 37%
    19:00 +26°C° 0 mm 2 mps 763 mmHg 40%
    20:00 +24°C° 0 mm 2 mps 763 mmHg 43%
    21:00 +24°C° 0 mm 2 mps 763 mmHg 45%
    22:00 +23°C° 0 mm 1 mps 763 mmHg 47%
    23:00 +23°C° 0 mm 1 mps 763 mmHg 49%

    Day after tomorrow, 22 September, Saturday

    Time Temperature Precipitation Wind Pressure Humidity
    00:00 +22°C° 0 mm 1 mps 763 mmHg 50%
    01:00 +22°C° 0 mm 1 mps 763 mmHg 51%
    02:00 +22°C° 0 mm 1 mps 763 mmHg 52%
    03:00 +20°C° 0 mm 2 mps 763 mmHg 53%
    04:00 +20°C° 0 mm 2 mps 763 mmHg 54%
    05:00 +20°C° 0 mm 2 mps 763 mmHg 55%
    06:00 +21°C° 0 mm 2 mps 763 mmHg 52%
    07:00 +23°C° 0 mm 2 mps 763 mmHg 49%
    08:00 +25°C° 0 mm 3 mps 763 mmHg 46%
    09:00 +26°C° 0 mm 2 mps 763 mmHg 42%
    10:00 +28°C° 0 mm 2 mps 763 mmHg 38%
    11:00 +29°C° 0 mm 2 mps 763 mmHg 34%
    12:00 +30°C° 0 mm 2 mps 762 mmHg 32%
    13:00 +30°C° 0 mm 2 mps 762 mmHg 29%
    14:00 +31°C° 0 mm 2 mps 762 mmHg 27%
    15:00 +30°C° 0 mm 2 mps 762 mmHg 31%
    16:00 +29°C° 0 mm 2 mps 761 mmHg 34%
    17:00 +28°C° 0 mm 2 mps 761 mmHg 37%
    18:00 +26°C° 0 mm 2 mps 761 mmHg 41%
    19:00 +25°C° 0 mm 2 mps 762 mmHg 46%
    20:00 +23°C° 0 mm 2 mps 762 mmHg 51%
    21:00 +23°C° 0 mm 2 mps 761 mmHg 52%
    22:00 +21°C° 0 mm 2 mps 761 mmHg 53%
    23:00 +21°C° 0 mm 2 mps 761 mmHg 53%

    23 September, Sunday

    Time Temperature Precipitation Wind Pressure Humidity
    00:00 +20°C° 0 mm 2 mps 761 mmHg 54%
    01:00 +20°C° 0 mm 3 mps 761 mmHg 54%
    02:00 +20°C° 0 mm 3 mps 761 mmHg 55%
    03:00 +20°C° 0 mm 5 mps 761 mmHg 58%
    04:00 +20°C° 0 mm 6 mps 761 mmHg 61%
    05:00 +20°C° 0 mm 8 mps 761 mmHg 64%
    06:00 +18°C° 0.1 mm 8 mps 762 mmHg 68%
    07:00 +16°C° 0.1 mm 9 mps 762 mmHg 72%
    08:00 +15°C° 0.1 mm 9 mps 763 mmHg 75%
    09:00 +15°C° 0.2 mm 9 mps 763 mmHg 70%
    10:00 +16°C° 0.2 mm 9 mps 763 mmHg 65%
    11:00 +17°C° 0.2 mm 8 mps 764 mmHg 60%
    12:00 +18°C° 0 mm 8 mps 764 mmHg 52%
    13:00 +20°C° 0 mm 7 mps 764 mmHg 43%
    14:00 +21°C° 0 mm 7 mps 764 mmHg 35%
    15:00 +21°C° 0 mm 6 mps 764 mmHg 34%
    16:00 +20°C° 0 mm 5 mps 764 mmHg 34%
    17:00 +20°C° 0 mm 5 mps 764 mmHg 33%
    18:00 +19°C° 0 mm 4 mps 765 mmHg 36%
    19:00 +17°C° 0 mm 3 mps 765 mmHg 40%
    20:00 +16°C° 0 mm 3 mps 765 mmHg 43%
    21:00 +16°C° 0 mm 2 mps 765 mmHg 44%
    22:00 +16°C° 0 mm 1 mps 766 mmHg 46%
    23:00 +15°C° 0 mm 1 mps 766 mmHg 47%

    24 September, Monday

    Time Temperature Precipitation Wind Pressure Humidity
    00:00 +15°C° 0 mm 1 mps 765 mmHg 48%
    01:00 +15°C° 0 mm 1 mps 765 mmHg 48%
    02:00 +15°C° 0 mm 2 mps 765 mmHg 49%
    03:00 +14°C° 0 mm 3 mps 764 mmHg 50%
    04:00 +14°C° 0 mm 4 mps 764 mmHg 50%
    05:00 +14°C° 0 mm 5 mps 764 mmHg 51%
    06:00 +15°C° 0 mm 6 mps 763 mmHg 48%
    07:00 +17°C° 0 mm 7 mps 763 mmHg 45%
    08:00 +18°C° 0 mm 8 mps 763 mmHg 42%
    09:00 +21°C° 0 mm 8 mps 763 mmHg 40%
    10:00 +22°C° 0 mm 8 mps 762 mmHg 38%
    11:00 +23°C° 0 mm 8 mps 762 mmHg 36%
    12:00 +23°C° 0 mm 8 mps 761 mmHg 38%
    13:00 +23°C° 0 mm 8 mps 760 mmHg 40%
    14:00 +24°C° 0 mm 9 mps 759 mmHg 42%
    15:00 +23°C° 0 mm 9 mps 759 mmHg 48%
    16:00 +22°C° 0 mm 9 mps 758 mmHg 55%
    17:00 +21°C° 0 mm 9 mps 758 mmHg 62%
    18:00 +21°C° 0 mm 9 mps 758 mmHg 67%
    19:00 +19°C° 0 mm 9 mps 758 mmHg 73%
    20:00 +19°C° 0 mm 9 mps 758 mmHg 79%
    21:00 +18°C° 0.1 mm 10 mps 759 mmHg 76%
    22:00 +18°C° 0.1 mm 11 mps 759 mmHg 72%
    23:00 +17°C° 0.1 mm 11 mps 760 mmHg 69%

    25 September, Tuesday

    Time Temperature Precipitation Wind Pressure Humidity
    00:00 +16°C° 0 mm 11 mps 760 mmHg 69%
    01:00 +14°C° 0 mm 10 mps 761 mmHg 69%
    02:00 +13°C° 0 mm 10 mps 761 mmHg 68%
    03:00 +13°C° 0 mm 10 mps 762 mmHg 68%
    04:00 +12°C° 0 mm 9 mps 762 mmHg 68%
    05:00 +11°C° 0 mm 9 mps 763 mmHg 68%
    06:00 +12°C° 0 mm 9 mps 764 mmHg 65%
    07:00 +12°C° 0 mm 9 mps 764 mmHg 63%
    08:00 +12°C° 0 mm 9 mps 764 mmHg 60%
    09:00 +13°C° 0 mm 8 mps 765 mmHg 56%
    10:00 +15°C° 0 mm 8 mps 765 mmHg 52%
    11:00 +16°C° 0 mm 8 mps 765 mmHg 48%
    12:00 +17°C° 0 mm 8 mps 765 mmHg 46%
    13:00 +17°C° 0 mm 7 mps 765 mmHg 44%
    14:00 +18°C° 0 mm 7 mps 765 mmHg 42%
    15:00 +17°C° 0 mm 8 mps 765 mmHg 42%
    16:00 +17°C° 0 mm 8 mps 765 mmHg 41%
    17:00 +16°C° 0 mm 8 mps 766 mmHg 41%
    18:00 +15°C° 0 mm 8 mps 766 mmHg 43%
    19:00 +15°C° 0 mm 8 mps 766 mmHg 45%
    20:00 +13°C° 0 mm 8 mps 767 mmHg 47%
    21:00 +12°C° 0 mm 8 mps 767 mmHg 49%
    22:00 +11°C° 0 mm 8 mps 767 mmHg 52%
    23:00 +10°C° 0 mm 7 mps 767 mmHg 54%
    Show more